Wind_Speed
11 11 11 10 9 10 11 13 14 15 15 14 12 8 7 13 17 18 19 19 15 13 11 6 3 5 5 10 4 7 19 8 9 3 9 4 11 2 2 2 6 6 2 4 12
12 12 12 11 10 10 11 12 14 15 16 16 13 10 6 9 16 17 18 19 17 14 9 6 5 3 4 4 5 14 11 9 9 8 5 9 8 9 6 9 9 5 4 8 13
10 12 13 12 11 10 10 11 14 15 15 16 14 12 7 5 9 14 16 18 18 16 7 5 10 18 11 2 7 13 8 6 6 5 6 5 5 6 4 6 16 12 6 6 11
9 11 13 13 12 11 10 10 12 15 16 15 15 13 8 7 9 18 15 20 18 21 11 4 11 21 7 14 17 12 8 2 8 7 5 4 5 10 6 8 14 16 14 7 9
9 10 12 14 13 12 11 10 11 13 15 16 16 15 11 11 8 16 16 19 22 19 10 3 8 18 17 5 8 4 5 5 11 6 7 2 6 6 14 6 12 14 16 13 9
8 9 11 13 14 13 11 10 10 12 14 16 17 17 14 16 11 14 18 26 22 17 7 2 9 13 4 7 2 2 10 7 7 8 6 1 3 3 6 4 3 11 13 15 15
8 9 11 13 14 13 12 10 9 10 13 16 17 17 16 15 11 10 22 27 20 12 8 4 10 9 4 4 5 10 5 6 9 11 9 6 7 8 3 8 5 4 10 13 13
8 8 9 11 13 13 12 10 9 10 12 15 17 17 14 17 14 8 21 27 20 14 8 5 4 5 6 4 3 6 7 8 15 6 8 7 9 13 9 8 5 4 7 12 11
8 7 8 10 12 13 12 11 9 10 12 15 17 15 15 23 16 10 21 26 20 15 10 4 3 5 6 4 3 6 7 12 13 10 10 13 8 15 14 12 12 6 3 7 12
7 7 7 9 12 13 12 10 9 10 12 15 14 11 6 9 11 15 20 25 18 16 13 7 2 4 6 4 10 8 13 15 14 14 13 6 8 7 18 19 16 10 4 2 6
6 6 6 8 11 12 12 10 10 11 14 12 14 12 15 16 10 8 22 22 21 17 10 6 8 6 3 11 4 4 3 7 12 13 10 4 3 5 14 25 21 16 10 4 0
6 5 6 9 12 13 14 17 12 9 10 17 21 18 14 11 11 16 21 18 22 21 11 11 12 5 8 3 5 4 13 8 12 7 6 6 7 8 6 25 27 17 9 9 8
5 5 6 9 13 16 23 14 8 8 10 21 22 20 17 8 15 15 17 26 19 16 16 17 8 8 12 4 6 6 3 1 3 4 6 7 11 13 9 6 13 23 16 14 16
4 5 6 10 14 21 22 13 10 9 5 17 24 22 18 15 18 22 22 25 21 18 10 12 4 9 9 6 9 7 3 3 4 7 8 4 5 16 11 5 1 5 10 24 22
4 5 7 11 16 26 21 20 12 9 1 8 22 10 16 15 15 16 19 26 20 15 9 9 6 6 10 8 7 12 5 15 13 11 15 6 3 14 13 4 3 5 7 10 19
4 6 9 15 23 28 22 18 13 3 5 8 19 17 22 18 21 11 17 26 16 14 14 19 16 14 10 9 5 9 12 17 11 16 6 2 4 11 5 8 3 10 4 3 6
5 7 12 26 27 27 24 22 9 6 11 13 21 23 19 15 12 13 16 25 21 13 13 10 17 14 10 13 11 12 9 6 6 3 3 6 7 6 9 5 5 12 9 10 10
5 8 16 28 29 26 24 22 8 6 12 13 23 20 17 14 13 22 17 21 19 19 18 8 10 15 17 15 13 13 10 6 3 2 4 6 4 5 3 3 8 10 8 7 9
5 8 17 26 25 25 27 19 5 3 2 14 25 19 19 18 21 22 23 18 19 20 14 6 11 11 21 12 12 4 15 10 8 4 7 3 3 3 12 12 9 16 14 10 8
6 10 16 23 20 24 25 16 4 3 9 19 23 22 18 18 26 21 20 14 21 21 19 7 9 2 4 13 16 15 13 11 8 3 2 5 6 12 14 16 16 12 17 19 10
9 13 15 15 18 19 23 18 4 11 14 19 22 18 16 20 29 21 17 11 13 14 16 18 13 6 7 3 8 7 9 5 3 1 7 4 7 11 16 20 16 8 13 8 7
13 16 10 9 12 20 24 5 4 11 8 7 18 19 15 18 29 23 19 16 13 14 15 15 1 4 6 10 8 10 10 11 6 6 2 4 1 4 5 8 15 14 10 6 14
15 16 5 1 9 20 21 14 12 14 10 11 2 11 8 11 26 24 18 10 15 19 18 10 2 3 5 5 7 7 14 16 6 7 21 2 3 1 10 10 12 17 14 11 13
16 12 11 9 7 8 14 12 9 8 5 6 4 6 10 14 23 19 18 12 12 13 9 4 7 4 4 5 3 9 13 16 13 5 14 8 5 16 10 18 19 18 10 9 13
15 16 13 12 3 8 10 9 6 6 6 6 11 5 8 6 16 17 16 16 10 7 5 8 5 4 6 4 4 10 6 14 11 3 8 7 9 14 17 15 8 6 11 15 19
18 15 10 5 7 9 16 10 7 1 11 5 2 5 1 4 6 17 19 16 11 7 6 6 5 3 8 8 7 7 4 8 4 5 12 10 7 6 7 9 9 10 7 10 14
21 17 12 10 5 9 8 12 11 4 2 4 6 6 5 11 10 18 16 9 7 5 8 2 2 4 3 7 8 5 8 2 9 6 5 15 13 13 10 6 7 7 9 9 11
Wind_Direction
245 239 237 234 232 225 220 213 207 205 207 205 204 205 194 189 190 186 174 157 148 158 136 126 66 339 312 299 293 271 233 113 135 83 49 86 29 145 2 25 9 350 34 109 141
249 241 237 236 233 229 220 215 208 204 207 208 204 211 199 198 197 189 176 162 161 158 136 105 85 13 327 16 208 146 142 107 158 120 34 80 79 138 141 39 17 22 116 134 113
253 244 237 234 232 231 226 216 208 204 207 210 206 210 209 201 200 175 178 165 168 170 142 73 26 348 12 121 179 174 138 122 137 111 76 90 64 106 128 57 33 39 55 134 119
264 247 237 232 229 227 224 219 211 207 209 212 210 207 206 191 166 180 180 175 183 186 176 32 355 3 72 136 148 135 136 111 170 173 179 325 17 56 58 65 41 43 60 112 157
273 255 239 231 226 226 222 219 214 210 211 212 213 206 200 181 150 181 187 187 187 189 184 311 358 353 347 339 140 93 177 171 137 140 169 252 88 43 12 61 53 49 52 76 98
281 260 244 231 225 221 221 220 219 214 211 212 213 205 196 175 176 163 190 182 176 188 175 329 353 355 349 129 188 355 196 205 130 148 181 289 145 253 358 196 87 57 53 45 59
287 267 246 231 223 220 218 217 218 217 212 211 212 205 197 175 194 161 177 175 170 195 173 76 13 327 228 87 159 157 213 246 180 149 166 149 168 238 267 208 264 45 51 50 41
288 272 249 231 220 217 215 213 214 215 211 208 209 203 183 179 192 169 168 174 182 196 162 72 329 266 244 317 262 196 251 227 185 195 199 239 229 245 235 229 251 300 36 47 62
286 274 250 229 215 210 211 207 206 208 205 205 204 196 183 199 209 202 182 180 188 178 159 207 263 212 198 295 286 252 249 214 214 225 208 231 246 237 233 236 247 252 356 59 55
285 271 249 224 209 203 202 196 195 197 196 200 187 184 187 210 231 241 199 178 182 178 188 168 205 231 177 280 283 289 252 253 229 201 205 242 271 231 239 236 251 252 263 57 77
283 265 244 215 201 193 187 173 170 180 191 184 169 137 138 149 193 155 182 168 176 196 187 181 243 202 27 321 276 345 11 272 211 192 180 340 304 237 247 232 240 235 244 250 159
280 257 233 206 193 180 164 145 161 185 181 176 168 157 138 163 160 136 164 185 184 189 222 224 226 198 302 61 291 281 0 101 131 156 247 308 280 259 301 223 231 236 253 261 219
278 246 223 199 184 163 151 136 158 185 188 185 173 166 155 163 172 168 181 178 192 201 199 233 195 302 275 277 250 337 7 95 348 301 268 266 294 254 227 161 224 227 250 245 220
271 230 210 191 175 160 150 136 199 206 223 205 184 180 181 183 195 181 188 183 193 202 210 262 231 276 250 236 250 282 354 350 333 306 282 274 271 188 201 195 245 165 196 221 217
261 218 195 176 162 160 152 163 181 177 330 183 197 191 204 178 153 181 178 186 186 171 216 216 274 280 259 218 330 261 306 317 296 294 298 341 156 193 233 194 109 263 242 228 232
250 206 181 161 155 169 175 175 170 174 255 155 170 183 176 163 156 174 180 173 172 225 242 261 272 274 282 250 221 262 272 309 306 296 290 159 197 208 277 292 288 152 346 159 207
239 197 171 161 155 158 175 171 170 225 161 176 173 165 168 176 182 191 186 200 216 233 254 245 263 263 259 250 237 239 290 319 325 357 241 205 193 211 331 1 169 193 197 172 162
228 194 175 167 167 164 165 172 211 170 162 180 163 161 183 179 172 162 188 200 216 231 264 271 285 236 226 257 263 238 248 258 253 217 198 23 2 182 322 351 167 203 184 180 136
215 187 179 177 183 177 178 191 200 108 64 174 164 174 192 179 180 178 190 205 217 221 228 255 264 2 220 244 232 207 253 287 303 123 96 35 327 252 203 262 251 210 189 168 143
194 175 178 184 184 190 187 198 186 122 14 175 171 182 196 193 180 191 187 191 197 202 211 238 283 308 209 228 231 254 268 287 302 178 100 253 260 247 216 227 231 243 198 180 179
161 155 171 188 185 188 200 220 253 54 19 189 193 182 190 189 194 198 199 183 193 204 224 238 260 308 217 247 273 252 264 358 321 87 155 179 236 244 238 232 253 14 188 198 217
146 143 150 204 202 201 203 231 277 13 38 175 216 249 223 225 199 206 221 229 210 225 242 207 212 322 342 55 37 105 62 30 37 348 307 221 147 194 134 217 231 239 222 224 242
141 145 139 212 234 230 226 255 278 351 17 6 145 164 359 302 199 182 164 160 213 182 182 201 171 48 18 282 350 14 20 3 342 33 28 115 239 39 173 233 201 197 209 224 257
149 153 192 275 252 233 230 222 311 356 352 4 133 108 3 167 199 189 173 157 167 175 168 186 217 165 104 45 360 333 335 347 343 38 359 353 138 212 197 156 161 171 185 249 281
175 157 174 219 223 217 204 236 298 359 16 350 119 182 26 53 137 160 169 167 162 168 205 217 209 109 61 46 44 14 6 340 343 5 41 113 125 125 150 164 191 263 283 283 284
198 185 203 227 206 274 221 221 275 19 353 291 287 332 327 47 130 157 150 150 138 115 122 156 123 55 69 52 37 44 26 304 343 341 134 127 135 169 217 245 254 253 263 295 296
205 201 207 187 131 171 189 240 230 332 66 243 242 215 65 91 151 144 135 104 115 130 148 153 17 338 43 0 355 348 20 216 152 160 207 181 169 179 195 233 249 250 257 262 266
Height
3149 3150 3151 3153 3154 3155 3156 3158 3160 3162 3164 3166 3167 3168 3170 3170 3172 3174 3177 3182 3182 3183 3184 3185 3188 3188 3188 3187 3189 3188 3190 3188 3188 3188 3187 3186 3186 3183 3182 3180 3178 3178 3176 3175 3175
3148 3148 3149 3150 3152 3153 3154 3156 3158 3160 3162 3164 3166 3167 3168 3169 3171 3174 3179 3180 3182 3183 3184 3185 3187 3187 3187 3186 3186 3183 3188 3187 3187 3187 3188 3188 3187 3186 3184 3182 3181 3179 3177 3175 3178
3145 3146 3147 3148 3149 3151 3152 3154 3156 3158 3160 3162 3164 3165 3167 3168 3171 3174 3176 3179 3182 3183 3184 3185 3186 3185 3183 3184 3185 3188 3187 3187 3187 3187 3188 3186 3185 3183 3183 3183 3180 3179 3177 3177 3180
3143 3143 3144 3145 3147 3149 3150 3152 3153 3156 3158 3159 3161 3163 3166 3167 3171 3171 3175 3178 3180 3182 3183 3184 3184 3182 3183 3184 3185 3186 3186 3187 3186 3187 3187 3186 3185 3184 3184 3183 3181 3181 3179 3179 3180
3141 3141 3142 3143 3145 3147 3149 3150 3152 3153 3155 3157 3159 3162 3164 3167 3169 3171 3174 3175 3177 3181 3183 3183 3182 3181 3181 3185 3186 3185 3185 3186 3186 3185 3185 3186 3186 3185 3185 3183 3184 3182 3182 3182 3182
3139 3139 3139 3140 3142 3145 3147 3148 3150 3152 3153 3155 3157 3160 3163 3166 3167 3169 3169 3172 3177 3180 3182 3182 3181 3181 3182 3186 3186 3185 3184 3185 3186 3185 3185 3185 3185 3186 3186 3184 3185 3185 3184 3184 3183
3137 3137 3137 3138 3140 3142 3145 3147 3148 3150 3151 3153 3155 3158 3161 3164 3166 3167 3168 3171 3174 3179 3180 3180 3180 3180 3182 3182 3183 3185 3186 3186 3186 3186 3187 3186 3186 3184 3184 3184 3185 3187 3186 3185 3185
3135 3134 3135 3136 3138 3140 3143 3144 3146 3148 3149 3151 3154 3157 3160 3162 3163 3165 3167 3170 3172 3176 3178 3178 3179 3179 3181 3182 3181 3184 3185 3185 3184 3186 3186 3186 3184 3183 3183 3183 3185 3186 3186 3186 3186
3133 3133 3133 3134 3136 3138 3141 3143 3144 3146 3148 3150 3152 3156 3159 3160 3162 3165 3167 3169 3172 3175 3177 3178 3178 3177 3181 3181 3182 3182 3182 3182 3184 3185 3185 3184 3182 3180 3181 3182 3183 3185 3186 3186 3186
3132 3131 3131 3132 3134 3137 3140 3142 3143 3145 3146 3149 3152 3158 3158 3160 3163 3163 3166 3170 3173 3175 3175 3176 3177 3178 3179 3180 3180 3181 3178 3179 3180 3183 3183 3182 3181 3180 3178 3180 3181 3183 3184 3186 3186
3130 3129 3130 3131 3132 3135 3139 3141 3145 3145 3144 3149 3152 3155 3156 3158 3160 3159 3165 3170 3172 3174 3175 3177 3177 3176 3177 3179 3178 3178 3177 3178 3176 3180 3182 3181 3180 3181 3179 3179 3181 3182 3183 3186 3187
3128 3128 3128 3129 3131 3135 3139 3141 3141 3145 3145 3147 3150 3153 3155 3156 3157 3159 3165 3169 3170 3171 3174 3177 3174 3175 3177 3177 3179 3177 3178 3177 3179 3180 3181 3180 3180 3179 3178 3177 3179 3181 3183 3184 3185
3126 3126 3127 3128 3131 3135 3139 3142 3142 3142 3144 3146 3149 3152 3154 3156 3158 3159 3163 3166 3168 3171 3173 3174 3172 3174 3176 3177 3177 3178 3179 3179 3180 3179 3178 3177 3178 3178 3180 3179 3177 3181 3184 3184 3185
3125 3125 3126 3127 3133 3135 3140 3144 3141 3143 3145 3146 3147 3150 3152 3154 3156 3159 3162 3167 3168 3170 3173 3173 3172 3173 3173 3176 3177 3178 3179 3178 3177 3177 3176 3177 3177 3177 3178 3180 3176 3179 3180 3180 3182
3123 3124 3124 3127 3130 3135 3139 3138 3139 3142 3143 3142 3144 3147 3150 3153 3155 3158 3161 3165 3167 3169 3173 3170 3171 3173 3175 3175 3176 3177 3177 3176 3175 3175 3174 3175 3175 3175 3178 3181 3178 3178 3179 3178 3179
3122 3122 3124 3126 3128 3131 3135 3138 3141 3143 3138 3139 3141 3143 3147 3150 3154 3158 3160 3164 3167 3168 3170 3168 3169 3172 3172 3172 3173 3174 3175 3174 3173 3172 3172 3171 3173 3175 3176 3178 3179 3179 3178 3180 3181
3120 3121 3123 3125 3129 3132 3134 3138 3142 3139 3137 3138 3139 3143 3146 3150 3153 3154 3158 3162 3165 3168 3167 3167 3167 3169 3171 3171 3172 3173 3174 3174 3174 3172 3173 3171 3172 3174 3172 3172 3176 3178 3178 3178 3180
3119 3119 3122 3126 3128 3130 3134 3138 3138 3134 3135 3138 3140 3144 3146 3149 3152 3154 3159 3162 3163 3165 3168 3168 3167 3166 3167 3168 3170 3170 3173 3174 3177 3175 3174 3173 3173 3172 3171 3169 3176 3178 3179 3178 3178
3117 3119 3121 3126 3128 3130 3133 3135 3132 3134 3138 3140 3141 3143 3145 3148 3152 3154 3157 3159 3160 3164 3167 3166 3164 3159 3163 3165 3168 3169 3170 3172 3170 3170 3171 3174 3174 3171 3169 3172 3174 3175 3176 3177 3177
3117 3118 3121 3125 3127 3130 3133 3131 3132 3134 3137 3140 3138 3141 3142 3146 3151 3153 3155 3156 3157 3159 3162 3165 3165 3164 3163 3164 3166 3167 3168 3169 3167 3170 3175 3172 3170 3168 3167 3170 3170 3174 3172 3173 3172
3117 3119 3122 3125 3127 3130 3130 3130 3131 3134 3136 3139 3137 3139 3141 3143 3147 3149 3150 3153 3154 3157 3160 3162 3166 3165 3164 3165 3165 3165 3165 3166 3166 3166 3167 3171 3164 3163 3166 3166 3164 3163 3162 3174 3174
3117 3120 3123 3126 3130 3129 3129 3129 3129 3129 3133 3135 3137 3138 3142 3142 3144 3146 3147 3149 3151 3154 3156 3161 3162 3163 3165 3164 3165 3165 3164 3165 3167 3166 3166 3164 3164 3163 3165 3164 3164 3165 3167 3167 3171
3118 3119 3121 3126 3127 3127 3129 3127 3129 3129 3131 3130 3132 3134 3135 3134 3141 3145 3146 3148 3148 3152 3155 3158 3160 3162 3163 3165 3164 3163 3164 3164 3164 3164 3164 3163 3164 3164 3166 3165 3165 3167 3167 3169 3168
3118 3120 3121 3122 3125 3126 3127 3123 3127 3128 3129 3132 3129 3130 3132 3134 3137 3141 3144 3147 3149 3150 3154 3157 3159 3160 3164 3165 3164 3163 3162 3161 3160 3162 3164 3161 3161 3163 3165 3165 3166 3168 3168 3168 3166
3116 3118 3120 3123 3124 3124 3129 3128 3127 3129 3131 3131 3132 3135 3133 3134 3134 3138 3141 3144 3148 3151 3153 3156 3159 3161 3161 3162 3162 3163 3162 3160 3160 3162 3161 3163 3162 3166 3167 3170 3170 3168 3166 3164 3163
3116 3118 3120 3122 3124 3125 3126 3127 3128 3128 3130 3129 3131 3133 3135 3134 3137 3140 3141 3144 3148 3151 3151 3154 3157 3159 3160 3161 3161 3161 3161 3161 3160 3160 3161 3160 3163 3167 3167 3168 3167 3167 3164 3160 3159
3113 3116 3118 3119 3122 3123 3128 3127 3125 3127 3126 3127 3131 3132 3134 3137 3138 3140 3142 3145 3148 3151 3151 3154 3154 3156 3158 3159 3159 3159 3159 3156 3155 3156 3157 3160 3164 3166 3163 3161 3161 3160 3159 3158 3156